Address 0x06a5efdf2f518f530ed43e3293d2ecf9e896e670

Overview

Balance:
0.0003214979 MATIC
My Name Tag:
Not Available

Txn Hash Method
Block
From
To
Value [Txn Fee]
0xd35b1da862928cca1482d9ccc9d31c6fa1e653339877b385cb5aaadd9465bfb7Transfer263427572022-05-17 2:19:25199 days 16 hrs ago0x06a5efdf2f518f530ed43e3293d2ecf9e896e670OUT0x87f70751d283d4d4b7cc16586e2e3afcf528ca7b6.449322 MATIC0.000178500428.50002
0x8f8dc715596244f8671c240083fcafc456311cab0bdec2a7b2d80fa8326d4420Transfer262815362022-05-11 4:08:27205 days 15 hrs ago0x06a5efdf2f518f530ed43e3293d2ecf9e896e670OUT0x87f70751d283d4d4b7cc16586e2e3afcf528ca7b9.999821 MATIC0.000178501058.50005
0x697a042e853394851b883a972e6a9a0cd991162d76c4a2848e56129243e56030Transfer262325712022-05-06 21:11:16209 days 22 hrs ago0x06a5efdf2f518f530ed43e3293d2ecf9e896e670OUT0x87f70751d283d4d4b7cc16586e2e3afcf528ca7b10.05 MATIC0.000178500638.50003
[ Download CSV Export 
Latest 25 internal transaction
Parent Txn Hash Block From To Value
0xd78d2d7cbcf1e92fc12f0171d2e96e5862924ec06df937f5ee8e0430187b4465263036752022-05-13 6:43:18203 days 12 hrs ago 0x7f092e65c688a509737fcd8d0998dd12208f52970x06a5efdf2f518f530ed43e3293d2ecf9e896e6700.2 MATIC
0x8da784a66d5f0f6eff5a703c4a9ca65c22e882178c5c41bf74c51af8038144b1263022772022-05-13 3:53:37203 days 15 hrs ago 0x7f092e65c688a509737fcd8d0998dd12208f52970x06a5efdf2f518f530ed43e3293d2ecf9e896e6700.2 MATIC
0x42d034c125912e83cb70e09d8589f670bd2b992d5e08d5808e0fd939f1419a57263007212022-05-13 0:48:26203 days 18 hrs ago 0x7f092e65c688a509737fcd8d0998dd12208f52970x06a5efdf2f518f530ed43e3293d2ecf9e896e6700.2 MATIC
0x4c53950393e395cc80595c93253c2e9e161c8a05439399c9c086be017d704a21262963152022-05-12 15:02:17204 days 4 hrs ago 0x7f092e65c688a509737fcd8d0998dd12208f52970x06a5efdf2f518f530ed43e3293d2ecf9e896e6700.2 MATIC
0x9833ea233122a26d9bc06b5b101389f4a6fff04b88769063452aefcfabe1f702262963062022-05-12 15:00:47204 days 4 hrs ago 0x7f092e65c688a509737fcd8d0998dd12208f52970x06a5efdf2f518f530ed43e3293d2ecf9e896e6700.2 MATIC
0x3bdbbd236d2921bde54477ee5f4d63606fc44dded9a842e51a2392fb0ee87cf0262963032022-05-12 15:00:17204 days 4 hrs ago 0x7f092e65c688a509737fcd8d0998dd12208f52970x06a5efdf2f518f530ed43e3293d2ecf9e896e6700.2 MATIC
0xc12d28b2e642aa60d58207603fe76f94065bbfcaeab12f18db9009c38b00b77f262962982022-05-12 14:59:27204 days 4 hrs ago 0x7f092e65c688a509737fcd8d0998dd12208f52970x06a5efdf2f518f530ed43e3293d2ecf9e896e6700.2 MATIC
0x0a0dced9fcc9501acaa8654f809f95d64c04f21e4fe39c0e8579158307015393262962902022-05-12 14:58:07204 days 4 hrs ago 0x7f092e65c688a509737fcd8d0998dd12208f52970x06a5efdf2f518f530ed43e3293d2ecf9e896e6700.2 MATIC
0x13aab439c6acfdae98fbfa2f30df6fed018f0989c2d56583c5e9f109b5fdcfbb262962862022-05-12 14:57:27204 days 4 hrs ago 0x7f092e65c688a509737fcd8d0998dd12208f52970x06a5efdf2f518f530ed43e3293d2ecf9e896e6700.2 MATIC
0x1c46a8249c9c876dbc1bbc3754197e34c1dc31e1b65dc3eafc3d8bc2ae6afcf7262962812022-05-12 14:56:37204 days 4 hrs ago 0x7f092e65c688a509737fcd8d0998dd12208f52970x06a5efdf2f518f530ed43e3293d2ecf9e896e6700.2 MATIC
0x13b478546d2470156e3c330ffea1e5c59082f7a8130f5ef54e42f07505047a66262962742022-05-12 14:55:27204 days 4 hrs ago 0x7f092e65c688a509737fcd8d0998dd12208f52970x06a5efdf2f518f530ed43e3293d2ecf9e896e6700.2 MATIC
0x79d96e1c82e9ccc4632a34c4b507b97a2c07981af0a5e9705fe6c5765b2174ca262949502022-05-12 11:39:00204 days 7 hrs ago 0x7f092e65c688a509737fcd8d0998dd12208f52970x06a5efdf2f518f530ed43e3293d2ecf9e896e6700.2 MATIC
0xd668aa7cd1f72e9d0551a780722b9d3494ed421b5f034c7145b587c28c7e773b262933422022-05-12 7:33:56204 days 11 hrs ago 0x7f092e65c688a509737fcd8d0998dd12208f52970x06a5efdf2f518f530ed43e3293d2ecf9e896e6700.2 MATIC
0x8431e3803634e1d5f2b8f23aa5a179d190cc4472ff9785e95b35065a4d2482bb262921502022-05-12 4:35:32204 days 14 hrs ago 0x7f092e65c688a509737fcd8d0998dd12208f52970x06a5efdf2f518f530ed43e3293d2ecf9e896e6700.2 MATIC
0x0fd2b3feb69b960a78f74ee212c2c89f8ed9d616421c479126cdf243f9bad964262912362022-05-12 2:19:43204 days 16 hrs ago 0x7f092e65c688a509737fcd8d0998dd12208f52970x06a5efdf2f518f530ed43e3293d2ecf9e896e6700.2 MATIC
0xc928abe7921403bc5fd0212457470ec65c00c261123100c4eb16eb49f7273f82262900192022-05-11 23:39:14204 days 19 hrs ago 0x7f092e65c688a509737fcd8d0998dd12208f52970x06a5efdf2f518f530ed43e3293d2ecf9e896e6700.2 MATIC
0xdd17ca13c3746e9ae1ac985079fbab35c91e4f854e14469c0436450376e91e3f262896552022-05-11 22:54:28204 days 20 hrs ago 0x7f092e65c688a509737fcd8d0998dd12208f52970x06a5efdf2f518f530ed43e3293d2ecf9e896e6700.2 MATIC
0x80713ed59a9cbb268870ab6ffa59ce8d78cf0a538b6c2e998d6264882331d4e5262892972022-05-11 22:05:23204 days 21 hrs ago 0x7f092e65c688a509737fcd8d0998dd12208f52970x06a5efdf2f518f530ed43e3293d2ecf9e896e6700.2 MATIC
0x0c1ccfb81a3a3cd93707a90feb63976d0919af62dac5cfa26245d448553473fe262889042022-05-11 21:15:47204 days 22 hrs ago 0x7f092e65c688a509737fcd8d0998dd12208f52970x06a5efdf2f518f530ed43e3293d2ecf9e896e6700.2 MATIC
0xe0309eb9c62593011cb02c579d4e330cd6b34f467fceab1190bd1626483b2bcd262883892022-05-11 20:11:09204 days 23 hrs ago 0x7f092e65c688a509737fcd8d0998dd12208f52970x06a5efdf2f518f530ed43e3293d2ecf9e896e6700.2 MATIC
0x4bc5db2cf7fe19a3e0d2e235f3d1022872e840ee135dd814e09499e78d56089a262878992022-05-11 19:05:21205 days 10 mins ago 0x7f092e65c688a509737fcd8d0998dd12208f52970x06a5efdf2f518f530ed43e3293d2ecf9e896e6700.2 MATIC
0x5dbafdda987196c4b004f20acaa86de30bee25d42e7f3b4651dc4d098b1ff5bb262873012022-05-11 17:46:52205 days 1 hr ago 0x7f092e65c688a509737fcd8d0998dd12208f52970x06a5efdf2f518f530ed43e3293d2ecf9e896e6700.2 MATIC
0x134f7625f88b8c1d7fc1f02461f6dfcc48ec5d5f3b95920c91c3e1583dae3531262866702022-05-11 16:28:12205 days 2 hrs ago 0x7f092e65c688a509737fcd8d0998dd12208f52970x06a5efdf2f518f530ed43e3293d2ecf9e896e6700.2 MATIC
0x2eaf56c92c0b1d08b3f22ac2d18029d452cb391cd83c07adfabb77f423dcd4a5262859982022-05-11 15:02:41205 days 4 hrs ago 0x7f092e65c688a509737fcd8d0998dd12208f52970x06a5efdf2f518f530ed43e3293d2ecf9e896e6700.2 MATIC
0xd8ec86cbff04c0e9d07c6896c5a5deff2f361cb583af7ddd14be5c2de1d8764f262852282022-05-11 13:20:49205 days 5 hrs ago 0x7f092e65c688a509737fcd8d0998dd12208f52970x06a5efdf2f518f530ed43e3293d2ecf9e896e6700.2 MATIC
[ Download CSV Export 
Loading

Contract Name:
0 MATIC

Compiler Version
0

Optimization Enabled:
0 MATIC

Other Settings:
-NA-
Block Transaction Gas Used Reward
Age Block Fee Address BC Fee Address Voting Power Jailed Incoming
Block Uncle Number Difficulty Gas Used Reward
Loading